Miscellaneous Local Product
Issued by NWS Hastings, NE

Home | Current Version | Previous Version | Graphics & Text | Print | Product List | Glossary On
Versions: 1 2 3 4 5 6 7 8 9 10 11 12 13 14 15 16 17 18 19 20 21 22 23 24 25 26 27 28 29 30 31 32 33 34 35 36 37 38 39 40 41 42 43 44 45 46 47 48 49 50
475
AXUS43 KGID 161102
MISGRI

GID CWA HOURLY WEATHER ROUNDUP
NATIONAL WEATHER SERVICE HASTINGS NE
600 AM CDT MON OCT 16 2017

NOTE: "FAIR" INDICATES FEW OR NO CLOUDS BELOW 12,000 FEET WITH NO
SIGNIFICANT WEATHER AND/OR OBSTRUCTIONS TO VISIBILITY.

...SOUTH CENTRAL NEBRASKA...

CITY           SKY/WX    TMP DP  RH WIND       PRES   REMARKS
GRAND ISLAND   CLEAR     36  34  92 SW3       30.32S
HASTINGS       CLEAR     39  32  76 CALM      30.32F
KEARNEY        CLEAR     39  32  76 SW3       30.32S
ORD            CLEAR     31  27  85 CALM      30.28F
YORK           CLEAR     37  36  93 CALM      30.33S
AURORA         CLEAR     39  32  77 CALM      30.32S
LEXINGTON      CLEAR     32  30  92 NE3       30.30F
HOLDREGE       CLEAR     42  28  58 S8        30.31S
HEBRON         CLEAR     34  33  95 CALM      30.35S

...NEBRASKA PANHANDLE...

CITY           SKY/WX    TMP DP  RH WIND       PRES   REMARKS
CHADRON        CLEAR     31  24  75 CALM      30.20F
ALLIANCE       CLOUDY    26  22  84 SW6       30.24F WCI  19
SCOTTSBLUFF    CLOUDY    28  23  81 CALM      30.26S
SIDNEY         CLOUDY    29  24  82 NW10      30.28F HAZE    WCI  20

...WESTERN AND NORTH CENTRAL NEBRASKA...

CITY           SKY/WX    TMP DP  RH WIND       PRES   REMARKS
VALENTINE      CLOUDY    34  28  79 CALM      30.21F
AINSWORTH      CLEAR     40  32  73 S9        30.23F WCI  34
ONEILL         CLEAR     37  33  84 S7        30.27F WCI  32
BROKEN BOW     CLEAR     32  28  85 CALM      30.28F
IMPERIAL       CLOUDY    34  26  72 W5        30.30F WCI  30
NORTH PLATTE   CLOUDY    30  28  92 CALM      30.29F
MCCOOK         CLOUDY    34  30  85 SW5       30.31F WCI  30

...EASTERN NEBRASKA...

CITY           SKY/WX    TMP DP  RH WIND       PRES   REMARKS
NORFOLK        CLEAR     33  31  92 CALM      30.30S
SO SIOUX CITY  CLEAR     34  34 100 SE3       30.31R
TEKAMAH        CLEAR     34  31  88 SW6       30.33R WCI  29
COLUMBUS       CLEAR     30  28  92 CALM      30.33R
ALBION         CLEAR     32  31  96 CALM      30.30S
OMAHA EPPLEY   CLEAR     41  35  79 S6        30.33S
OFFUTT AFB     CLEAR     35  33  96 CALM      30.33R
MILLARD        CLEAR     37  37  97 CALM      30.34R FOG
LINCOLN        CLEAR     37  34  89 S5        30.35S WCI  33
NEBRASKA CITY  CLEAR     42  37  81 SW6       30.34S
BEATRICE       CLEAR     38  36  90 CALM      30.35S
FALLS CITY     CLEAR     37  35  92 CALM      30.36R

...NORTHERN KANSAS...

CITY           SKY/WX    TMP DP  RH WIND       PRES   REMARKS
GOODLAND       CLEAR     45  29  53 SW8       30.31S
HILL CITY      CLEAR     35  32  88 W3        30.36S
NORTON         SUNNY     34  27  75 SW7       30.32F WCI  28
PHILLIPSBURG   CLEAR     37  32  81 CALM      30.35S
SMITH CENTER   CLEAR     34  30  86 CALM      30.35S
HAYS           CLEAR     37  33  85 SW5       30.38S WCI  33
RUSSELL        CLEAR     40  36  86 SW9       30.36S WCI  34
CONCORDIA      CLEAR     42  36  79 SW6       30.35S
SALINA         CLEAR     41  38  89 S5        30.38S
TOPEKA         CLEAR     39  38  96 CALM      30.39R



USA.gov is the U.S. government's official web portal to all federal, state and local government web resources and services.